EW3836 Weather Reports


Display with metric or nautical units.
time (UTC)temp
F
wind
direction
speed
MPH
gust
MPH
rain 1hr
in
rain 24hr
in
rain mn
in
humidity
%
barometer
mb
20260504004559 74 39 0.0 0.0 0.00 0.00 0.00 41 1006.2
20260504003043 74 305 0.0 0.0 0.00 0.00 0.00 42 1006.4
20260504001543 75 33 0.0 0.0 0.00 0.00 0.00 41 1006.4
20260504000037 75 49 0.0 0.0 0.00 0.00 0.00 43 1006.6
20260503234533 75 355 0.0 0.0 0.00 0.00 0.00 41 1006.7
20260503233032 75 314 0.0 0.0 0.00 0.00 0.00 41 1006.8
20260503231527 75 29 0.0 0.0 0.00 0.00 0.00 37 1006.9
20260503230025 75 26 0.0 0.0 0.00 0.00 0.00 40 1007.1
20260503224523 75 16 0.0 0.0 0.00 0.00 0.00 37 1007.3
20260503223021 75 17 0.0 0.0 0.00 0.00 0.00 40 1007.5
20260503221518 75 28 0.0 0.0 0.00 0.00 0.00 45 1007.7
20260503220016 74 336 0.0 0.0 0.00 0.00 0.00 43 1007.8
20260503214515 74 340 0.0 0.0 0.00 0.00 0.00 42 1008.0
20260503213016 75 13 0.0 0.0 0.00 0.00 0.00 41 1008.1
20260503211508 75 333 0.0 0.0 0.00 0.00 0.00 39 1008.3
20260503210007 75 307 0.0 0.0 0.00 0.00 0.00 40 1008.3
20260503204505 75 5 0.0 0.0 0.00 0.00 0.00 43 1008.4
20260503203003 75 19 0.0 0.0 0.00 0.00 0.00 39 1008.5
20260503201558 74 54 0.0 0.0 0.00 0.00 0.00 44 1008.6
20260503200055 74 46 0.0 0.0 0.00 0.00 0.00 42 1008.7
20260503194552 74 330 0.0 0.0 0.00 0.00 0.00 45 1009.0
20260503193056 73 334 0.0 0.0 0.00 0.00 0.00 43 1009.1
20260503191547 73 15 0.0 0.0 0.00 0.00 0.00 44 1009.2
20260503190050 71 323 0.0 0.0 0.00 0.00 0.00 42 1009.3
20260503184555 70 323 0.0 0.0 0.00 0.00 0.00 45 1009.3
20260503183042 67 314 0.0 0.0 0.00 0.00 0.00 54 1009.4
20260503181540 66 315 0.0 0.0 0.00 0.00 0.00 55 1009.6
20260503180039 65 302 0.0 0.0 0.00 0.00 0.00 54 1009.7
20260503174558 65 309 0.0 0.0 0.00 0.00 0.00 56 1009.7
20260503173041 66 316 0.0 0.0 0.00 0.00 0.00 54 1009.7
20260503171537 67 344 0.0 0.0 0.00 0.00 0.00 51 1009.7
20260503081545 64 123 0.0 0.0 0.00 0.00 0.00 34 1009.7
20260503071532 63 147 0.0 0.0 0.00 0.00 0.00 33 1009.7
20260503054528 63 130 0.0 0.0 0.00 0.00 0.00 37 1009.5
20260503053016 63 123 0.0 0.0 0.00 0.00 0.00 37 1009.5
20260503051515 63 139 0.0 0.0 0.00 0.00 0.00 37 1009.4
20260503050014 63 105 0.0 0.0 0.00 0.00 0.00 38 1009.3
20260503044514 64 133 0.0 0.0 0.00 0.00 0.00 38 1009.2
20260503043013 65 147 0.0 0.0 0.00 0.00 0.00 36 1009.2
20260503041512 66 106 0.0 0.0 0.00 0.00 0.00 36 1009.0
20260503040011 65 103 0.0 0.0 0.00 0.00 0.00 41 1008.9
20260503034510 65 43 0.0 0.0 0.00 0.00 0.00 37 1008.7
20260503033021 65 43 0.0 0.0 0.00 0.00 0.00 44 1008.5
20260503031509 64 43 0.0 0.0 0.00 0.00 0.00 50 1008.1
20260503030011 64 43 0.0 0.0 0.00 0.00 0.00 50 1008.1
20260503024608 66 43 0.0 0.0 0.00 0.00 0.00 50 1008.0
20260503023008 67 43 0.0 0.0 0.00 0.00 0.00 47 1008.1
20260503021507 69 43 0.0 0.0 0.00 0.00 0.00 44 1008.1
20260503020006 70 36 0.0 0.0 0.00 0.00 0.00 42 1008.0
20260503014505 71 17 0.0 0.0 0.00 0.00 0.00 42 1008.0
20260503013004 71 42 0.0 0.0 0.00 0.00 0.00 47 1008.0
20260503011504 70 47 0.0 0.0 0.00 0.00 0.00 51 1008.1
20260503010003 70 28 0.0 0.0 0.00 0.00 0.00 51 1008.1